Weather History for KLWD - January, 2013

Change the Weather History Date:

Thursday, January 31, 2013

  Actual Average Record
Temperature  
Mean Temperature 9 °F 25 °F  
Max Temperature 19 °F 34 °F 70 °F (1989)
Min Temperature -1 °F 16 °F -11 °F (1985)
Degree Days  
Heating Degree Days 56 40  
Month to date heating degree days 1143 1265  
Since 1 July heating degree days 3373 3692  
Cooling Degree Days 0 0  
Month to date cooling degree days 0 0  
Year to date cooling degree days 0 0  
Moisture  
Dew Point -2 °F    
Average Humidity 70    
Maximum Humidity 80    
Minimum Humidity 60    
Precipitation  
Precipitation T in 0.03 in 0.94 in (2015)
Month to date precipitation 1.39 0.72  
Sea Level Pressure  
Sea Level Pressure 30.19 in    
Wind  
Wind Speed 16 mph (WNW)    
Max Wind Speed 30 mph    
Max Gust Speed 36 mph    
Visibility 9 miles    
Events Snow    
T = Trace of Precipitation, MM = Missing Value Source: NWS Daily Summary

Daily Weather History Graph

Daily Weather History Graph

Search for Another Location

Airport or City:

Trip Planner

Search our weather history database for the weather conditions in past years. The results will help you decide how hot, cold, wet, or windy it might be!

Date:

Astronomy

Jan. 31, 2013 Rise Set
Actual Time 7:26 AM CST 5:32 PM CST
Civil Twilight 6:57 AM CST 6:01 PM CST
Nautical Twilight 6:24 AM CST 6:34 PM CST
Astronomical Twilight 5:52 AM CST 7:06 PM CST
Moon 10:37 PM CST (1/31) 9:24 AM CST (1/31)
Length of Visible Light 11h 04m
Length of Day
10h 06m
Waning Gibbous, 79% of the Moon is Illuminated
Jan 31
Waning Gibbous
Feb 3
Last Quarter
Feb 10
New
Feb 17
First Quarter
Feb 25
Full

Hourly Weather History & Observations

Time (CST) Temp. Windchill Dew Point Humidity Pressure Visibility Wind Dir Wind Speed Gust Speed Precip Events Conditions
12:53 AM 17.1 °F 3.0 °F 10.0 °F 74% 29.94 in 10.0 mi WNW 13.8 mph - 0.00 in   Overcast
1:53 AM 14.0 °F 0.5 °F 8.1 °F 77% 29.95 in 10.0 mi West 11.5 mph - N/A   Clear
2:53 AM 12.0 °F -1.3 °F 7.0 °F 80% 29.96 in 10.0 mi West 10.4 mph - N/A   Clear
3:53 AM 10.0 °F -2.9 °F 5.0 °F 80% 29.96 in 10.0 mi West 9.2 mph - N/A   Clear
4:53 AM 10.9 °F -4.7 °F 5.0 °F 77% 29.97 in 10.0 mi WNW 13.8 mph - N/A   Overcast
5:53 AM 10.9 °F -7.0 °F 3.9 °F 73% 30.00 in 10.0 mi WNW 18.4 mph - N/A   Overcast
6:53 AM 10.0 °F -5.9 °F 1.9 °F 70% 30.03 in 10.0 mi NW 13.8 mph - N/A   Overcast
7:53 AM 7.0 °F -11.0 °F -2.9 °F 64% 30.05 in 10.0 mi NW 16.1 mph 25.3 mph N/A   Clear
8:53 AM 7.0 °F -12.1 °F -4.0 °F 61% 30.09 in 10.0 mi NW 18.4 mph - N/A   Clear
9:53 AM 8.1 °F -11.2 °F -2.9 °F 61% 30.13 in 10.0 mi NW 19.6 mph - N/A   Clear
10:53 AM 9.0 °F -10.5 °F -2.0 °F 61% 30.17 in 10.0 mi WNW 20.7 mph - N/A   Scattered Clouds
11:53 AM 9.0 °F -11.8 °F -0.9 °F 64% 30.19 in 10.0 mi NW 24.2 mph 32.2 mph N/A   Mostly Cloudy
12:53 PM 8.1 °F -13.4 °F -2.9 °F 61% 30.22 in 6.0 mi NW 25.3 mph 34.5 mph N/A Snow Blowing Snow
1:05 PM 8.6 °F -13.1 °F -2.2 °F 62% 30.16 in 10.0 mi NW 26.5 mph 33.4 mph N/A   Overcast
2:06 PM 8.6 °F -11.4 °F -2.2 °F 62% 30.17 in 10.0 mi NW 21.9 mph 32.2 mph N/A   Scattered Clouds
2:15 PM 8.6 °F -11.0 °F -2.2 °F 62% 30.18 in 10.0 mi NW 20.7 mph 26.5 mph N/A   Mostly Cloudy
2:32 PM 8.6 °F -13.1 °F -0.4 °F 67% 30.19 in 2.0 mi WNW 26.5 mph 31.1 mph 0.00 in Snow Light Snow
2:43 PM 8.6 °F -11.0 °F -2.2 °F 62% 30.19 in 6.0 mi WNW 20.7 mph 31.1 mph 0.00 in   Haze
2:53 PM 7.0 °F -14.0 °F -2.9 °F 64% 30.27 in 10.0 mi WNW 23.0 mph 31.1 mph 0.00 in   Overcast
3:53 PM 6.1 °F -16.1 °F -4.0 °F 63% 30.30 in 9.0 mi NW 25.3 mph 33.4 mph N/A   Scattered Clouds
4:53 PM 6.1 °F -11.6 °F -5.1 °F 60% 30.32 in 10.0 mi NW 15.0 mph 27.6 mph N/A   Clear
5:53 PM 3.9 °F -15.0 °F -7.1 °F 60% 30.35 in 10.0 mi NW 16.1 mph - N/A   Clear
6:53 PM 3.0 °F -16.7 °F -7.1 °F 63% 30.37 in 10.0 mi WNW 17.3 mph - N/A   Clear
7:53 PM 1.9 °F -16.2 °F -7.1 °F 66% 30.40 in 10.0 mi WNW 13.8 mph - N/A   Clear
8:53 PM 1.0 °F -15.8 °F -8.0 °F 66% 30.43 in 10.0 mi WNW 11.5 mph - N/A   Clear
9:53 PM 1.0 °F -14.9 °F -8.0 °F 66% 30.43 in 10.0 mi WNW 10.4 mph - N/A   Clear
10:53 PM -0.9 °F -17.4 °F -9.0 °F 69% 30.46 in 10.0 mi West 10.4 mph - N/A   Clear
11:53 PM -0.9 °F -18.3 °F -8.0 °F 72% 30.47 in 10.0 mi West 11.5 mph - N/A   Clear